• In Moldova, Republic
  • List of Countries
  • For 7 days
  • Water Temperature
  • Satellite Maps
  • Weather Map
  • Weather Widgets
  • user-avatar
    Login

    Hourly Weather Naftalan

    Today, 25 January, Wednesday

    Time Temperature Precipitation Wind Pressure Humidity
    00:00 +2°C° 0 mm 5 mps 770 mmHg 84%
    01:00 +1°C° 0 mm 5 mps 769 mmHg 83%
    02:00 +1°C° 0 mm 5 mps 768 mmHg 81%
    03:00 +1°C° 0 mm 4 mps 768 mmHg 80%
    04:00 +1°C° 0 mm 4 mps 767 mmHg 75%
    05:00 0°C° 0 mm 4 mps 766 mmHg 71%
    06:00 0°C° 0 mm 4 mps 766 mmHg 67%
    07:00 +1°C° 0 mm 4 mps 765 mmHg 62%
    08:00 +3°C° 0 mm 4 mps 765 mmHg 56%
    09:00 +4°C° 0 mm 4 mps 765 mmHg 50%
    10:00 +6°C° 0 mm 4 mps 764 mmHg 46%
    11:00 +8°C° 0 mm 4 mps 763 mmHg 41%
    12:00 +10°C° 0 mm 4 mps 763 mmHg 37%
    13:00 +11°C° 0 mm 4 mps 762 mmHg 35%
    14:00 +11°C° 0 mm 3 mps 762 mmHg 33%
    15:00 +11°C° 0 mm 3 mps 762 mmHg 31%
    16:00 +10°C° 0 mm 2 mps 762 mmHg 34%
    17:00 +10°C° 0 mm 1 mps 762 mmHg 36%
    18:00 +8°C° 0 mm 1 mps 762 mmHg 39%
    19:00 +8°C° 0 mm 1 mps 761 mmHg 40%
    20:00 +7°C° 0 mm 1 mps 761 mmHg 42%
    21:00 +6°C° 0 mm 1 mps 761 mmHg 43%
    22:00 +6°C° 0 mm 1 mps 761 mmHg 46%
    23:00 +4°C° 0 mm 2 mps 761 mmHg 49%

    Tomorrow, 26 January, Thursday

    Time Temperature Precipitation Wind Pressure Humidity
    00:00 +4°C° 0 mm 2 mps 761 mmHg 52%
    01:00 +4°C° 0 mm 2 mps 761 mmHg 55%
    02:00 +3°C° 0 mm 2 mps 761 mmHg 57%
    03:00 +2°C° 0 mm 3 mps 761 mmHg 59%
    04:00 +3°C° 0 mm 2 mps 761 mmHg 58%
    05:00 +3°C° 0 mm 2 mps 761 mmHg 57%
    06:00 +2°C° 0 mm 2 mps 761 mmHg 56%
    07:00 +4°C° 0 mm 2 mps 761 mmHg 50%
    08:00 +4°C° 0 mm 3 mps 762 mmHg 44%
    09:00 +5°C° 0 mm 3 mps 762 mmHg 38%
    10:00 +8°C° 0 mm 3 mps 762 mmHg 38%
    11:00 +10°C° 0 mm 3 mps 762 mmHg 38%
    12:00 +11°C° 0 mm 3 mps 761 mmHg 38%
    13:00 +12°C° 0 mm 3 mps 761 mmHg 37%
    14:00 +13°C° 0 mm 2 mps 761 mmHg 37%
    15:00 +13°C° 0 mm 2 mps 760 mmHg 37%
    16:00 +12°C° 0 mm 2 mps 761 mmHg 42%
    17:00 +9°C° 0 mm 2 mps 761 mmHg 47%
    18:00 +7°C° 0 mm 2 mps 762 mmHg 52%
    19:00 +7°C° 0 mm 2 mps 762 mmHg 58%
    20:00 +5°C° 0 mm 3 mps 762 mmHg 64%
    21:00 +4°C° 0 mm 4 mps 763 mmHg 71%
    22:00 +3°C° 0 mm 5 mps 763 mmHg 76%
    23:00 +2°C° 0 mm 5 mps 764 mmHg 81%

    Day after tomorrow, 27 January, Friday

    Time Temperature Precipitation Wind Pressure Humidity
    00:00 +2°C° 0 mm 6 mps 764 mmHg 86%
    01:00 +2°C° 0 mm 6 mps 764 mmHg 88%
    02:00 +1°C° 0 mm 6 mps 764 mmHg 89%
    03:00 +1°C° 0 mm 5 mps 765 mmHg 90%
    04:00 +1°C° 0 mm 6 mps 765 mmHg 90%
    05:00 +1°C° 0 mm 6 mps 765 mmHg 90%
    06:00 0°C° 0 mm 7 mps 766 mmHg 90%
    07:00 +2°C° 0 mm 7 mps 766 mmHg 84%
    08:00 +2°C° 0 mm 7 mps 767 mmHg 77%
    09:00 +2°C° 0 mm 8 mps 767 mmHg 71%
    10:00 +4°C° 0.1 mm 8 mps 767 mmHg 68%
    11:00 +4°C° 0.1 mm 8 mps 767 mmHg 65%
    12:00 +3°C° 0.1 mm 9 mps 767 mmHg 62%
    13:00 +3°C° 0.1 mm 9 mps 766 mmHg 64%
    14:00 +4°C° 0.1 mm 8 mps 766 mmHg 66%
    15:00 +4°C° 0.1 mm 8 mps 766 mmHg 69%
    16:00 +2°C° 0.3 mm 8 mps 766 mmHg 72%
    17:00 +2°C° 0.3 mm 8 mps 767 mmHg 75%
    18:00 +1°C° 0.3 mm 8 mps 767 mmHg 79%
    19:00 +1°C° 0.3 mm 8 mps 767 mmHg 80%
    20:00 +1°C° 0.3 mm 8 mps 767 mmHg 81%
    21:00 +1°C° 0.3 mm 8 mps 767 mmHg 83%
    22:00 +1°C° 0.3 mm 8 mps 767 mmHg 83%
    23:00 +1°C° 0.3 mm 8 mps 767 mmHg 84%

    28 January, Saturday

    Time Temperature Precipitation Wind Pressure Humidity
    00:00 +1°C° 0.3 mm 8 mps 767 mmHg 84%
    01:00 +1°C° 0.3 mm 8 mps 767 mmHg 84%
    02:00 +1°C° 0.3 mm 8 mps 767 mmHg 85%
    03:00 0°C° 0.3 mm 7 mps 767 mmHg 85%
    04:00 +1°C° 0.4 mm 8 mps 767 mmHg 86%
    05:00 +1°C° 0.4 mm 8 mps 767 mmHg 86%
    06:00 +1°C° 0.4 mm 8 mps 767 mmHg 86%
    07:00 +1°C° 0.5 mm 8 mps 767 mmHg 86%
    08:00 +1°C° 0.5 mm 8 mps 767 mmHg 86%
    09:00 +2°C° 0.5 mm 8 mps 767 mmHg 86%
    10:00 +2°C° 0.5 mm 9 mps 767 mmHg 86%
    11:00 +2°C° 0.5 mm 9 mps 766 mmHg 85%
    12:00 +3°C° 0.5 mm 9 mps 766 mmHg 85%
    13:00 +2°C° 0.6 mm 8 mps 765 mmHg 85%
    14:00 +2°C° 0.6 mm 8 mps 765 mmHg 85%
    15:00 +2°C° 0.6 mm 8 mps 764 mmHg 85%
    16:00 +2°C° 0.5 mm 8 mps 765 mmHg 86%
    17:00 +2°C° 0.5 mm 8 mps 765 mmHg 87%
    18:00 +2°C° 0.5 mm 8 mps 765 mmHg 87%
    19:00 +3°C° 0.9 mm 7 mps 765 mmHg 87%
    20:00 +3°C° 0.9 mm 7 mps 765 mmHg 87%
    21:00 +2°C° 0.9 mm 6 mps 765 mmHg 88%
    22:00 +2°C° 0.5 mm 6 mps 765 mmHg 88%
    23:00 +2°C° 0.5 mm 6 mps 765 mmHg 88%

    29 January, Sunday

    Time Temperature Precipitation Wind Pressure Humidity
    00:00 +2°C° 0.5 mm 6 mps 765 mmHg 88%
    01:00 +2°C° 0.5 mm 6 mps 765 mmHg 89%
    02:00 +1°C° 0.5 mm 6 mps 765 mmHg 89%
    03:00 +1°C° 0.5 mm 6 mps 765 mmHg 89%
    04:00 +1°C° 0.2 mm 6 mps 766 mmHg 90%
    05:00 -1°C° 0.2 mm 7 mps 766 mmHg 90%
    06:00 -1°C° 0.2 mm 7 mps 766 mmHg 90%
    07:00 -1°C° 0.1 mm 7 mps 767 mmHg 88%
    08:00 -1°C° 0.1 mm 8 mps 767 mmHg 86%
    09:00 -1°C° 0.1 mm 8 mps 768 mmHg 84%
    10:00 0°C° 0 mm 8 mps 767 mmHg 79%
    11:00 0°C° 0 mm 8 mps 767 mmHg 74%
    12:00 +1°C° 0 mm 8 mps 767 mmHg 70%
    13:00 +1°C° 0 mm 8 mps 767 mmHg 68%
    14:00 +1°C° 0 mm 8 mps 767 mmHg 66%
    15:00 +1°C° 0 mm 8 mps 767 mmHg 64%
    16:00 0°C° 0 mm 7 mps 768 mmHg 68%
    17:00 -1°C° 0 mm 6 mps 768 mmHg 71%
    18:00 -1°C° 0 mm 5 mps 769 mmHg 74%
    19:00 -2°C° 0 mm 4 mps 769 mmHg 74%
    20:00 -1°C° 0 mm 3 mps 770 mmHg 75%
    21:00 -1°C° 0 mm 3 mps 770 mmHg 75%
    22:00 -1°C° 0 mm 2 mps 770 mmHg 73%
    23:00 -2°C° 0 mm 2 mps 770 mmHg 72%

    30 January, Monday

    Time Temperature Precipitation Wind Pressure Humidity
    00:00 -2°C° 0 mm 2 mps 770 mmHg 70%
    01:00 -2°C° 0 mm 2 mps 770 mmHg 68%
    02:00 -2°C° 0 mm 3 mps 770 mmHg 66%
    03:00 -2°C° 0 mm 3 mps 770 mmHg 63%
    04:00 -3°C° 0 mm 4 mps 771 mmHg 63%
    05:00 -3°C° 0 mm 4 mps 771 mmHg 64%
    06:00 -4°C° 0 mm 5 mps 771 mmHg 64%
    07:00 -2°C° 0 mm 5 mps 772 mmHg 63%
    08:00 -3°C° 0 mm 6 mps 772 mmHg 62%
    09:00 -2°C° 0 mm 6 mps 772 mmHg 61%
    10:00 -1°C° 0 mm 6 mps 772 mmHg 58%
    11:00 +1°C° 0 mm 6 mps 771 mmHg 55%
    12:00 +2°C° 0 mm 6 mps 771 mmHg 51%
    13:00 +2°C° 0 mm 5 mps 771 mmHg 52%
    14:00 +2°C° 0 mm 5 mps 770 mmHg 52%
    15:00 +3°C° 0 mm 4 mps 770 mmHg 52%
    16:00 +1°C° 0 mm 4 mps 770 mmHg 58%
    17:00 0°C° 0 mm 3 mps 770 mmHg 64%
    18:00 -1°C° 0 mm 3 mps 770 mmHg 70%
    19:00 -2°C° 0 mm 3 mps 770 mmHg 69%
    20:00 -2°C° 0 mm 3 mps 770 mmHg 69%
    21:00 -3°C° 0 mm 4 mps 770 mmHg 68%
    22:00 -3°C° 0 mm 4 mps 769 mmHg 69%
    23:00 -3°C° 0 mm 4 mps 769 mmHg 69%
    Show more